ゲーレルス彗星

P/1997 C1 ( Gehrels ) 2013

English version
Home page
Updated on January 7, 2012

---------------------------------------------------------------------

・ プロフィール

・ 軌道要素

Perturbed ephemeris below is based on elements from MPC 31204. 

 Epoch = 2456480.50000 TT   T = 2456481.74901 TT
 Peri. =  210.93294         a =     6.8597017 AU
 Node  =  225.29285 J2000.0 e =     0.4749553
 Incl. =    2.85498         q =     3.6016500 AU

・ 星図

・ 光度変化

        m1 = 3.0 + 5 logΔ + 20 log r

---------------------------------------------------------------------

軌道要素はMinor Planet & Comet Ephemeris Serviceで計算したものです。
星図はステラナビゲータ Ver.8 (アストロアーツ) で作成したものです。
光度グラフはComet for Windowsで作成したものです。

---------------------------------------------------------------------

Copyright(C) Seiichi Yoshida (comet@aerith.net). All rights reserved.